Find Starlink 30703

NORAD ID: 57954 Int'l Des: 2023-148 Owner: SPXS Country: US Constellation: starlink operational
LEOCIRCULAR

Current View

Loading 3D Globe...

About Starlink 30703

Starlink 30703 (NORAD 57954) is a starlink constellation satellite (v2 mini) launched Sep 25, 2023 by SPXS of US. It operates in LEO, CIRCULAR orbit with a mass of 730.00 kg.

About Starlink 30703

Description loading...

Upcoming Passes

Passes for default location (London). Set your location on the main map for personalized predictions.

Altitude History

Loading altitude history...

Two-Line Element Set

1 57954U 23148V 26175.89162112 .00000546 00000-0 27312-4 0 9993
2 57954 53.1598 234.9774 0001187 85.3452 274.7686 15.34390097154992
Epoch: Jun 24, 2026 • Age: 16 hours

Current Status

Altitude 465.7 km
Velocity 7.64 km/s
Sub-Earth Point 40.23°N, 104.66°W
Launch Date Sep 25, 2023
Age 2.7 years
Type internet

Technical Details

Classification Payload
Mass 730.00 kg
Dry Mass 700.00 kg
Total Mass 730.00 kg
Length 0.30 m
Diameter 4.10 m
Span 29.00 m
Shape Box + pan
Manufacturer SPXS
Bus Type Starlink V2M
Phase Status In Orbit
Owner/State SPXS/US

Most Searched